Location: Cold Norton
(51.6667°N, 0.6667°E)
Time: 15:49:19
(UTC+00:00)

Cosmos 2233 Rocket - Pass Details

Date: 18 November 2025
Orbit: 952 x 989 km, 82.9° (Epoch: 12 December)

Event Time Altitude Azimuth Distance (km) Brightness Sun altitude
Rises 17:24:29 0° 195° (SSW) 3,683 7.5 -12.4°
Reaches altitude 10° 17:27:00 10° 198° (SSW) 2,741 6.8 -12.8°
Maximum altitude 17:33:17 71° 282° (WNW) 1,048 4.3 -13.7°
Drops below altitude 10° 17:39:38 10° 7° (N) 2,763 6.2 -14.7°
Sets 17:42:11 0° 10° (N) 3,714 6.8 -15.0°
